SL-16 DEB, 22418

Orbit data source: Space-Track

SL-16 DEB, 22418 is space debris in LEO originally from a launch on Fri, 25 Dec 1992 UTC launched from the Tyuratam Missile And Space Complex (TTMTR). Debris objects in space refer to the collection of defunct objects orbiting the Earth. Examples of debris include non-operational satellites, rocket bodies, and fragments generated from explosions, collisions, or faulty payload assembly.

Loading next visibility...
Identifier
22418, 1992-093DK
Orbit
LEO
Country
Flag of CISCIS
Related business
Manufacturer
Unknown
Mission
Spacecraft
Bus & Motor
Unknown
Mass
Unknown
Launch date (UTC)
1992-12-25 (33 years ago)
Launch vehicle
Unknown
Launch site
Tyuratam Missile And Space Complex (TTMTR)
Object type
Payload
Rocket body
Debris
Shape & HBR
Unknown shape, 0.2 m
Radar Cross Section
Small (<0.1 m²)

Expand to show TLE details & history
Last TLE update: 7 hours ago

TLE from 7 hours ago
0 SL-16 DEB
1 22418U 92093DK  26133.42858219  .00000680  00000-0  41724-3 0  9999
2 22418  71.1260   9.2123 0124046 111.1589  66.1494 14.05326592700976
Epoch: 2026-05-13T10:17Z
TLE epoch observation values (Epoch: 2026-05-13T10:17:09.501Z)
Latitude
1.21045°
Longitude
163.32228°
Altitude
842.21 km
Speed
7.45 km/s
True Right ascension
12h 35m 12s
True Declination
1° 12' 12"
Sunlit
Object was in full shadow at epoch
Visualization orbit readout
Latitude
Unknown
Longitude
Unknown
Altitude
Unknown
Speed
Unknown
Apparent Right ascension
Unknown
Apparent Declination
Unknown
Sunlit
N/A
Visualization observer readout
Local Sidereal Time
01:57:39
Azimuth
Unknown
Elevation
Unknown
Doppler factor
Unknown
Orbital elements
Apogee altitude
963.282 km
Perigee altitude
783.378 km
Semi-major axis
7,251.467 km
Eccentricity
0.0124
Inclination
71.126°
RAAN
9.2123°
Arg. of periapsis
111.1589°
True anomaly
67.45756°
Mean anomaly
66.1494°
Eccentric anomaly
66.80267°
Mean motion
3.51483 °/min
Orbital period
102.42 mins
BSTAR
0.00041724
Loading maneuver chart data...
Computing Atmospheric mass density...
Loading historical data...
Loading historical data...
Loading historical data...
Loading historical data...
Loading historical data...
Loading historical data...
Loading historical data...

Documentation

Showing up to 5 results
|